Location: Camps Bay
(33.9517°S, 18.3844°E)
Time: 17:39:30
(UTC+00:00)

S3M - Pass Details

Date: 18 January 2020
Orbit: 949 x 1004 km, 83.0° (Epoch: 18 February)

Event Time Altitude Azimuth Distance (km) Brightness Sun altitude
Rises 01:50:04 0° 192° (SSW) 3,755 7.5 -21.5°
Reaches altitude 10° 01:52:40 10° 196° (SSW) 2,794 6.8 -21.2°
Maximum altitude 01:58:53 54° 271° (W) 1,196 4.2 -20.2°
Enters shadow 02:01:33 33° 330° (NNW) 1,608 4.6 -19.9°
